period_start,C,m1,H,J0,J1,J2,J3,J4,J5,JA,JB,JC,JD,JJ,JK,JN,#
2016-05-22 00:02:35,0.04,2.94,0.00,25.99,30.50,33.29,14.27,47.83,1010.76,2021.00,2421.37,2423.00,2691.30,599.83,586.55,57.75,0000 0000 0000 0000 000000
2016-05-22 00:07:36,0.03,2.94,0.00,26.01,30.51,33.29,14.27,47.63,1010.76,2020.99,2420.98,2422.40,2690.94,599.83,586.48,57.80,0000 0000 0000 0000 000000
2016-05-22 00:12:38,0.04,2.94,0.00,26.01,30.53,33.32,14.33,47.86,1010.76,2020.97,2420.24,2422.01,2690.13,599.83,586.46,57.85,0000 0000 0000 0000 000000
2016-05-22 00:17:39,0.04,2.94,0.00,26.05,30.55,33.34,14.27,47.79,1010.76,2020.87,2419.70,2421.61,2689.61,600.12,586.71,57.90,0000 0000 0000 0000 000000
2016-05-22 00:22:40,-0.02,2.95,0.00,26.09,30.57,33.36,14.21,47.87,1010.76,2020.45,2419.01,2421.02,2688.95,599.93,586.45,57.95,0000 0000 0000 0000 000000
2016-05-22 00:27:41,0.07,2.95,0.00,26.11,30.60,33.38,14.35,47.98,1010.76,2020.20,2417.95,2420.31,2688.11,599.84,586.35,58.00,0000 0000 0000 0000 000000
2016-05-22 00:32:43,0.02,2.95,0.00,26.15,30.62,33.41,14.24,47.77,1010.76,2020.06,2417.09,2419.89,2687.57,599.47,585.85,58.05,0000 0000 0000 0000 000000
2016-05-22 00:37:44,0.05,2.95,0.00,26.20,30.65,33.42,14.28,47.82,1010.76,2020.01,2416.56,2419.10,2686.95,599.82,586.05,58.10,0000 0000 0000 0000 000000
2016-05-22 00:42:46,0.03,2.95,0.00,26.23,30.68,33.44,14.25,47.69,1010.76,2020.00,2415.94,2418.98,2686.09,600.00,586.26,58.15,0000 0000 0000 0000 000000
2016-05-22 00:47:47,0.05,2.96,0.00,26.26,30.71,33.46,14.25,47.51,1010.76,2020.00,2415.24,2418.33,2685.85,599.89,586.12,58.20,0000 0000 0000 0000 000000
2016-05-22 00:52:48,0.03,2.96,0.00,26.30,30.73,33.47,14.29,48.09,1010.76,2020.00,2414.64,2417.99,2685.06,600.09,586.16,58.25,0000 0000 0000 0000 000000
2016-05-22 00:57:50,0.05,2.96,0.00,26.32,30.76,33.51,14.27,47.93,1010.76,2019.98,2414.11,2417.43,2684.64,599.98,585.96,58.31,0000 0000 0000 0000 000000
2016-05-22 01:02:51,0.03,2.96,0.00,26.36,30.79,33.54,14.23,47.92,1010.74,2019.95,2413.43,2417.00,2683.93,599.48,585.58,58.36,0000 0000 0000 0000 000000
2016-05-22 01:07:52,0.03,2.97,0.00,26.40,30.82,33.56,14.20,47.86,1010.71,2019.81,2412.84,2416.36,2683.11,599.67,585.52,58.41,0000 0000 0000 0000 000000
2016-05-22 01:12:53,0.01,2.97,0.00,26.43,30.85,33.60,14.32,47.83,1010.73,2019.31,2412.13,2416.00,2682.51,600.40,586.20,58.46,0000 0000 0000 0000 000000
2016-05-22 01:17:55,0.04,2.97,0.00,26.48,30.88,33.62,14.21,47.83,1010.66,2019.08,2411.28,2415.53,2681.74,599.51,585.20,58.51,0000 0000 0000 0000 000000
2016-05-22 01:22:56,0.02,2.97,0.00,26.52,30.91,33.65,14.33,47.80,1010.63,2019.05,2410.94,2415.03,2681.04,600.12,585.79,58.56,0000 0000 0000 0000 000000
2016-05-22 01:27:58,0.06,2.97,0.00,26.54,30.94,33.67,14.28,47.76,1010.61,2019.00,2410.25,2414.62,2680.65,599.93,585.37,58.61,0000 0000 0000 0000 000000
2016-05-22 01:32:59,0.03,2.97,0.00,26.59,30.97,33.71,14.32,48.16,1010.68,2019.00,2409.78,2414.02,2680.13,600.34,585.79,58.66,0000 0000 0000 0000 000000
2016-05-22 01:38:00,0.06,2.98,0.00,26.63,31.00,33.72,14.33,48.13,1010.54,2018.99,2409.01,2413.55,2679.34,600.08,585.39,58.71,0000 0000 0000 0000 000000
2016-05-22 01:43:01,0.03,2.98,0.00,26.67,31.03,33.76,14.23,48.03,1010.35,2018.96,2408.49,2413.01,2678.89,599.85,585.02,58.76,0000 0000 0000 0000 000000
2016-05-22 01:48:02,0.05,2.98,0.00,26.72,31.06,33.79,14.24,48.14,1010.29,2018.73,2407.70,2412.45,2678.05,600.20,585.19,58.81,0000 0000 0000 0000 000000
2016-05-22 01:53:03,-0.02,2.98,0.00,26.76,31.10,33.83,14.29,48.19,1010.28,2018.19,2406.95,2412.00,2677.31,600.24,585.14,58.86,0000 0000 0000 0000 000000
2016-05-22 01:58:05,0.04,2.98,0.00,26.80,31.13,33.85,14.30,48.09,1010.29,2018.02,2406.61,2411.35,2676.89,600.17,585.02,58.91,0000 0000 0000 0000 000000
2016-05-22 02:03:06,0.04,2.98,0.00,26.85,31.16,33.88,14.27,48.11,1010.28,2018.00,2405.92,2410.92,2676.16,599.87,584.53,58.96,0000 0000 0000 0000 000000
2016-05-22 02:08:07,0.07,2.99,0.00,26.88,31.20,33.92,14.27,48.07,1010.28,2017.99,2405.08,2410.16,2675.24,600.06,584.74,59.01,0000 0000 0000 0000 000000
2016-05-22 02:13:09,0.04,2.99,0.00,26.93,31.23,33.95,14.22,47.95,1010.27,2017.98,2404.33,2409.91,2674.62,599.97,584.61,59.06,0000 0000 0000 0000 000000
2016-05-22 02:18:10,0.06,2.99,0.00,26.99,31.27,33.98,14.18,48.01,1010.27,2017.91,2403.52,2409.11,2673.88,599.80,584.24,59.11,0000 0000 0000 0000 000000
2016-05-22 02:23:11,-0.01,2.99,0.00,27.03,31.31,34.03,14.22,47.88,1010.27,2017.62,2403.12,2408.90,2673.32,600.08,584.33,59.16,0000 0000 0000 0000 000000
2016-05-22 02:28:12,0.02,2.99,0.00,27.07,31.34,34.07,14.20,48.00,1010.27,2017.24,2402.38,2408.13,2672.70,599.78,584.12,59.21,0000 0000 0000 0000 000000
2016-05-22 02:33:14,0.03,2.99,0.00,27.11,31.37,34.11,14.25,48.02,1010.27,2017.01,2402.02,2407.62,2672.07,600.13,584.42,59.26,0000 0000 0000 0000 000000
2016-05-22 02:38:15,0.05,3.00,0.00,27.15,31.41,34.14,14.24,47.76,1010.27,2017.00,2401.38,2407.01,2671.50,600.21,584.33,59.32,0000 0000 0000 0000 000000
2016-05-22 02:43:17,0.04,3.00,0.00,27.18,31.44,34.17,14.26,48.00,1010.25,2016.99,2400.85,2406.54,2670.89,600.27,584.23,59.37,0000 0000 0000 0000 000000
2016-05-22 02:48:18,0.03,3.00,0.00,27.08,31.48,34.23,14.23,48.23,1010.21,2016.85,2400.04,2405.98,2670.10,600.19,584.41,59.42,0000 0000 0000 0000 000000
2016-05-22 02:53:19,0.03,3.00,0.00,26.93,31.51,34.48,14.22,48.17,1010.11,2016.47,2399.23,2405.25,2669.29,599.79,584.17,59.47,0000 0000 0000 0000 000000
2016-05-22 02:58:21,0.02,3.00,0.00,26.75,31.52,34.90,14.24,48.13,1009.92,2016.28,2398.28,2405.00,2668.70,599.85,584.65,59.52,0000 0000 0000 0000 000000
2016-05-22 03:03:22,0.06,3.01,0.00,26.46,31.52,34.82,14.36,48.27,1009.80,2016.38,2397.34,2404.94,2668.00,599.77,585.03,59.57,0000 0000 0000 0000 000000
2016-05-22 03:08:23,0.06,3.01,0.00,26.22,31.49,34.66,14.34,48.37,1009.78,2016.63,2397.00,2404.35,2667.74,599.95,585.67,59.62,0000 0000 0000 0000 000000
2016-05-22 03:13:25,0.04,3.01,0.00,26.15,31.46,34.49,14.37,48.38,1009.78,2016.84,2396.74,2404.03,2667.31,600.22,586.01,59.67,0000 0000 0000 0000 000000
2016-05-22 03:18:26,0.02,3.01,0.00,26.14,31.41,34.40,14.29,48.40,1009.78,2016.96,2396.02,2404.00,2667.00,599.63,585.59,59.72,0000 0000 0000 0000 000000
2016-05-22 03:23:28,0.00,3.01,0.00,26.15,31.37,34.28,14.38,48.73,1009.77,2016.99,2395.99,2404.00,2666.97,600.08,585.87,59.77,0000 0000 0000 0000 000000
2016-05-22 03:28:29,0.02,3.02,0.00,26.13,31.33,34.21,14.26,48.64,1009.71,2016.99,2395.69,2404.00,2666.70,599.40,585.21,59.82,0000 0000 0000 0000 000000
2016-05-22 03:33:30,0.02,3.02,0.00,26.10,31.28,34.15,14.35,48.61,1009.48,2017.00,2395.13,2403.95,2666.30,600.36,586.20,59.87,0000 0000 0000 0000 000000
2016-05-22 03:38:32,0.04,3.02,0.00,26.10,31.23,34.09,14.28,48.49,1009.33,2017.18,2394.96,2403.90,2666.07,599.96,585.69,59.92,0000 0000 0000 0000 000000
2016-05-22 03:43:33,0.07,3.02,0.00,26.08,31.18,34.02,14.29,48.48,1009.32,2017.69,2394.96,2403.65,2666.02,599.76,585.43,59.97,0000 0000 0000 0000 000000
2016-05-22 03:48:34,0.05,3.02,0.00,26.05,31.13,33.95,14.24,48.48,1009.31,2017.95,2394.34,2403.15,2665.97,599.76,585.56,60.02,0000 0000 0000 0000 000000
2016-05-22 03:53:35,0.01,3.03,0.00,26.06,31.08,33.91,14.40,48.57,1009.29,2017.99,2393.99,2403.15,2665.64,600.10,585.80,60.07,0000 0000 0000 0000 000000
2016-05-22 03:58:36,0.01,2.73,0.00,26.08,31.04,33.85,12.47,42.61,1009.29,2018.39,2544.94,2499.42,2783.01,528.90,516.32,0.00,0000 0000 0000 0000 000002
2016-05-22 04:03:38,0.02,0.00,0.00,26.07,31.00,33.77,14.33,49.27,1009.29,2021.00,3520.10,3124.05,3546.28,599.95,585.62,0.02,0000 0000 0000 0000 000000
2016-05-22 04:08:39,0.02,0.00,0.00,26.03,30.94,33.72,14.33,49.13,1009.29,2021.00,3517.67,3123.09,3545.80,599.55,585.36,0.07,0000 0000 0000 0000 000000
2016-05-22 04:13:40,0.02,0.00,0.00,26.04,30.89,33.66,14.37,49.15,1009.29,2021.01,3516.64,3123.00,3545.05,600.20,585.92,0.12,0000 0000 0000 0000 000000
2016-05-22 04:18:41,0.02,0.00,0.00,26.05,30.84,33.61,14.27,49.00,1009.26,2021.19,3515.92,3122.99,3544.72,599.88,585.48,0.17,0000 0000 0000 0000 000000
2016-05-22 04:23:43,0.05,0.00,0.00,26.01,30.79,33.55,14.31,48.88,1009.27,2021.60,3515.06,3122.88,3544.04,600.09,585.90,0.22,0000 0000 0000 0000 000000
2016-05-22 04:28:44,0.05,0.01,0.00,25.96,30.74,33.46,14.28,48.94,1009.22,2021.98,3514.39,3122.55,3543.99,599.70,585.59,0.27,0000 0000 0000 0000 000000
2016-05-22 04:33:45,0.03,0.01,0.00,25.93,30.69,33.38,14.27,48.77,1009.22,2021.99,3513.86,3122.15,3543.41,599.60,585.58,0.32,0000 0000 0000 0000 000000
2016-05-22 04:38:47,0.02,0.01,0.00,25.91,30.63,33.32,14.26,48.67,1009.13,2022.01,3513.08,3122.03,3543.02,600.08,585.94,0.37,0000 0000 0000 0000 000000
2016-05-22 04:43:48,0.06,0.01,0.00,25.83,30.58,33.26,14.35,48.77,1009.16,2022.37,3512.58,3122.02,3542.98,600.35,586.50,0.42,0000 0000 0000 0000 000000
2016-05-22 04:48:49,0.04,0.01,0.00,25.70,30.51,33.16,14.30,48.91,1009.12,2022.93,3512.00,3122.00,3542.82,599.98,586.28,0.47,0000 0000 0000 0000 000000
2016-05-22 04:53:50,0.02,0.02,0.00,25.62,30.44,33.12,14.31,48.95,1008.89,2022.99,3511.47,3122.00,3542.14,599.60,585.93,0.52,0000 0000 0000 0000 000000
2016-05-22 04:58:52,0.02,0.02,0.00,25.57,30.37,33.07,14.27,48.92,1008.82,2023.08,3510.94,3122.00,3542.01,599.76,586.22,0.57,0000 0000 0000 0000 000000
2016-05-22 05:03:53,0.07,0.02,0.00,25.54,30.30,32.98,14.35,48.84,1008.81,2023.68,3510.16,3122.00,3542.00,599.88,586.26,0.62,0000 0000 0000 0000 000000
2016-05-22 05:08:54,0.01,0.02,0.00,25.52,30.22,32.90,14.36,48.98,1008.81,2023.98,3509.92,3122.00,3541.97,600.23,586.74,0.67,0000 0000 0000 0000 000000
2016-05-22 05:13:55,0.02,0.02,0.00,25.54,30.15,32.85,14.34,48.80,1008.80,2024.02,3509.18,3122.00,3541.59,600.03,586.52,0.72,0000 0000 0000 0000 000000
2016-05-22 05:18:57,0.05,0.02,0.00,25.52,30.08,32.78,14.29,49.06,1008.80,2024.31,3508.94,3122.00,3541.10,599.80,586.36,0.77,0000 0000 0000 0000 000000
2016-05-22 05:23:58,0.05,0.03,0.00,25.52,30.02,32.77,14.33,49.12,1008.80,2024.92,3508.20,3122.00,3541.00,600.17,586.63,0.82,0000 0000 0000 0000 000000
2016-05-22 05:29:00,0.00,0.03,0.00,25.52,29.95,32.71,14.34,49.26,1008.79,2024.99,3507.95,3122.00,3541.00,600.17,586.52,0.87,0000 0000 0000 0000 000000
2016-05-22 05:34:01,0.02,0.03,0.00,25.50,29.89,32.63,14.30,49.02,1008.79,2025.03,3507.33,3122.00,3540.61,600.09,586.64,0.92,0000 0000 0000 0000 000000
2016-05-22 05:39:02,0.09,0.03,0.00,25.49,29.84,32.61,14.30,48.96,1008.79,2025.69,3506.72,3121.99,3540.04,599.82,586.34,0.97,0000 0000 0000 0000 000000
2016-05-22 05:44:03,0.01,0.04,0.00,25.48,29.79,32.56,14.31,48.98,1008.80,2025.97,3506.08,3121.93,3539.99,600.28,586.81,1.02,0000 0000 0000 0000 000000
2016-05-22 05:49:05,0.03,0.04,0.00,25.48,29.75,32.49,14.30,49.09,1008.77,2025.99,3505.56,3121.71,3539.57,599.84,586.32,1.07,0000 0000 0000 0000 000000
2016-05-22 05:54:06,0.03,0.04,0.00,25.48,29.70,32.43,14.29,48.94,1008.72,2026.01,3504.83,3121.14,3539.01,599.93,586.40,1.12,0000 0000 0000 0000 000000
2016-05-22 05:59:08,0.06,0.04,0.00,25.51,29.66,32.36,14.27,49.05,1008.75,2026.35,3504.06,3121.04,3538.80,599.78,586.16,1.17,0000 0000 0000 0000 000000
2016-05-22 06:04:09,0.05,0.04,0.00,25.54,29.62,32.37,14.19,48.87,1008.75,2026.91,3503.73,3121.00,3538.11,599.72,586.06,1.22,0000 0000 0000 0000 000000
2016-05-22 06:09:10,0.01,0.05,0.00,25.56,29.59,32.36,14.32,48.98,1008.69,2026.99,3503.02,3120.99,3537.90,600.22,586.55,1.27,0000 0000 0000 0000 000000
2016-05-22 06:14:12,0.03,0.05,0.00,25.58,29.56,32.34,14.32,49.08,1008.51,2026.99,3502.28,3120.73,3537.13,600.08,586.37,1.32,0000 0000 0000 0000 000000
2016-05-22 06:19:13,0.02,0.05,0.00,25.61,29.54,32.33,14.28,49.35,1008.41,2026.99,3501.88,3120.10,3536.83,600.13,586.14,1.37,0000 0000 0000 0000 000000
2016-05-22 06:24:14,0.02,0.05,0.00,25.62,29.51,32.34,14.20,49.26,1008.36,2027.02,3500.92,3120.00,3536.07,599.92,585.93,1.42,0000 0000 0000 0000 000000
2016-05-22 06:29:15,0.03,0.05,0.00,25.65,29.50,32.33,14.27,49.14,1008.35,2027.04,3500.04,3119.73,3535.43,599.95,585.90,1.47,0000 0000 0000 0000 000000
2016-05-22 06:34:17,0.04,0.05,0.00,25.68,29.48,32.34,14.24,49.05,1008.34,2027.13,3499.52,3119.11,3534.94,599.86,585.75,1.52,0000 0000 0000 0000 000000
2016-05-22 06:39:18,0.04,0.05,0.00,25.70,29.47,32.34,14.34,49.19,1008.33,2027.25,3498.65,3118.99,3534.09,600.15,586.02,1.57,0000 0000 0000 0000 000000
2016-05-22 06:44:20,0.05,0.06,0.00,25.72,29.45,32.35,14.27,49.16,1008.32,2027.42,3497.83,3118.41,3533.45,600.10,585.91,1.62,0000 0000 0000 0000 000000
2016-05-22 06:49:21,0.06,0.06,0.00,25.75,29.45,32.35,14.25,49.07,1008.32,2027.77,3496.70,3118.01,3532.79,600.07,585.71,1.67,0000 0000 0000 0000 000000
2016-05-22 06:54:23,0.05,0.06,0.00,25.79,29.45,32.37,14.23,49.23,1008.32,2027.94,3495.68,3117.59,3532.01,600.06,585.77,1.72,0000 0000 0000 0000 000000
2016-05-22 06:59:24,0.02,0.07,0.00,25.83,29.45,32.35,14.18,49.21,1008.32,2027.93,3494.94,3117.02,3531.17,599.67,585.28,1.77,0000 0000 0000 0000 000000
2016-05-22 07:04:26,0.04,0.07,0.00,25.86,29.45,32.31,14.32,49.17,1008.32,2027.96,3494.10,3116.74,3530.44,600.14,585.70,1.82,0000 0000 0000 0000 000000
2016-05-22 07:09:27,0.04,0.07,0.00,25.88,29.45,32.29,14.25,49.11,1008.30,2027.96,3493.03,3116.05,3529.73,600.13,585.55,1.87,0000 0000 0000 0000 000000
2016-05-22 07:14:29,0.03,0.07,0.00,25.91,29.45,32.28,14.27,49.17,1008.30,2027.98,3492.00,3115.84,3528.91,600.12,585.53,1.92,0000 0000 0000 0000 000000
2016-05-22 07:19:30,0.04,0.07,0.00,25.95,29.45,32.25,14.24,49.09,1008.30,2027.97,3491.02,3115.05,3528.02,600.31,585.58,1.97,0000 0000 0000 0000 000000
2016-05-22 07:24:31,0.03,0.08,0.00,26.00,29.45,32.23,14.18,48.98,1008.31,2027.98,3490.09,3114.82,3527.11,599.83,585.15,2.02,0000 0000 0000 0000 000000
2016-05-22 07:29:32,0.04,0.08,0.00,26.05,29.47,32.21,14.16,48.89,1008.31,2027.98,3489.19,3114.07,3526.38,600.00,585.18,2.07,0000 0000 0000 0000 000000
2016-05-22 07:34:34,0.03,0.08,0.00,26.10,29.47,32.20,14.25,49.13,1008.31,2027.98,3488.11,3113.80,3525.52,599.97,585.02,2.12,0000 0000 0000 0000 000000
2016-05-22 07:39:35,0.04,0.08,0.00,26.14,29.47,32.20,14.27,49.06,1008.31,2027.98,3487.17,3113.04,3524.63,599.86,584.82,2.18,0000 0000 0000 0000 000000
2016-05-22 07:44:37,0.04,0.08,0.00,26.20,29.49,32.19,14.20,49.05,1008.31,2027.96,3486.16,3112.62,3523.75,599.94,584.96,2.23,0000 0000 0000 0000 000000
2016-05-22 07:49:38,0.03,0.09,0.00,26.25,29.50,32.17,14.20,49.01,1008.31,2027.95,3485.19,3112.01,3522.92,600.23,585.00,2.28,0000 0000 0000 0000 000000
2016-05-22 07:54:39,0.03,0.09,0.00,26.30,29.52,32.18,14.20,49.02,1008.30,2027.83,3484.17,3111.29,3521.94,600.28,584.99,2.33,0000 0000 0000 0000 000000
2016-05-22 07:59:40,0.02,0.09,0.00,26.35,29.54,32.18,14.22,48.95,1008.30,2027.72,3483.16,3110.88,3520.98,600.00,584.68,2.38,0000 0000 0000 0000 000000
2016-05-22 08:04:42,0.03,0.09,0.00,26.41,29.56,32.20,14.25,49.05,1008.31,2027.43,3482.03,3110.05,3520.06,600.19,584.63,2.43,0000 0000 0000 0000 000000
2016-05-22 08:09:43,0.03,0.09,0.00,26.46,29.58,32.19,14.19,48.96,1008.31,2027.21,3480.87,3109.47,3519.14,600.22,584.55,2.48,0000 0000 0000 0000 000000
2016-05-22 08:14:45,0.02,0.09,0.00,26.51,29.60,32.22,14.20,48.98,1008.31,2027.17,3479.89,3108.94,3518.32,599.87,584.10,2.53,0000 0000 0000 0000 000000
2016-05-22 08:19:46,0.04,0.10,0.00,26.56,29.62,32.27,14.18,48.82,1008.31,2027.05,3478.85,3108.14,3517.38,600.02,584.17,2.58,0000 0000 0000 0000 000000
2016-05-22 08:24:47,0.05,0.10,0.00,26.61,29.65,32.27,14.24,48.81,1008.31,2027.04,3477.80,3107.68,3516.50,600.13,584.24,2.63,0000 0000 0000 0000 000000
2016-05-22 08:29:49,0.04,0.10,0.00,26.64,29.67,32.28,14.13,48.82,1008.31,2027.00,3476.72,3106.97,3515.41,599.92,583.94,2.68,0000 0000 0000 0000 000000
2016-05-22 08:34:50,0.05,0.10,0.00,26.69,29.70,32.31,14.25,48.88,1008.31,2027.00,3475.69,3106.21,3514.47,600.27,584.02,2.73,0000 0000 0000 0000 000000
2016-05-22 08:39:51,0.04,0.10,0.00,26.71,29.72,32.34,14.20,48.83,1008.31,2027.00,3474.68,3105.69,3513.57,599.97,583.87,2.78,0000 0000 0000 0000 000000
2016-05-22 08:44:52,0.04,0.11,0.00,26.72,29.75,32.37,14.17,48.99,1008.31,2026.98,3473.56,3104.95,3512.57,599.78,583.70,2.83,0000 0000 0000 0000 000000
2016-05-22 08:49:54,0.05,0.11,0.00,26.71,29.77,32.40,14.16,48.91,1008.31,2026.94,3472.43,3104.13,3511.51,600.00,583.87,2.88,0000 0000 0000 0000 000000
2016-05-22 08:54:55,0.03,0.11,0.00,26.71,29.78,32.44,14.19,49.01,1008.31,2026.88,3471.47,3103.61,3510.72,600.38,584.20,2.93,0000 0000 0000 0000 000000
2016-05-22 08:59:56,-0.01,0.11,0.00,26.72,29.80,32.47,14.19,48.82,1008.29,2026.53,3470.43,3102.96,3509.70,599.95,583.86,2.98,0000 0000 0000 0000 000000
2016-05-22 09:04:57,0.03,0.11,0.00,26.73,29.82,32.48,14.24,48.84,1008.29,2026.23,3469.37,3102.19,3508.78,600.49,584.23,3.03,0000 0000 0000 0000 000000
2016-05-22 09:09:59,0.04,0.11,0.00,26.75,29.84,32.51,14.26,48.86,1008.31,2026.05,3468.28,3101.61,3507.87,600.23,584.05,3.08,0000 0000 0000 0000 000000
2016-05-22 09:15:00,0.03,0.12,0.00,26.74,29.85,32.54,14.18,48.89,1008.31,2026.02,3467.23,3100.99,3506.98,599.97,583.74,3.13,0000 0000 0000 0000 000000
2016-05-22 09:20:02,0.05,0.12,0.00,26.77,29.87,32.56,14.13,48.87,1008.30,2026.00,3466.17,3100.23,3506.07,599.83,583.52,3.18,0000 0000 0000 0000 000000
2016-05-22 09:25:04,0.04,0.12,0.00,26.77,29.89,32.59,14.23,48.88,1008.29,2026.00,3465.18,3099.74,3505.18,600.33,584.06,3.23,0000 0000 0000 0000 000000
2016-05-22 09:30:05,0.04,0.12,0.00,26.75,29.90,32.61,14.10,48.83,1008.29,2026.00,3464.28,3099.01,3504.26,599.98,583.63,3.28,0000 0000 0000 0000 000000
2016-05-22 09:35:07,0.04,0.13,0.00,26.74,29.92,32.61,14.18,48.77,1008.17,2025.97,3463.34,3098.28,3503.45,600.33,584.04,3.33,0000 0000 0000 0000 000000
2016-05-22 09:40:08,0.03,0.13,0.00,26.72,29.93,32.65,14.24,48.99,1007.95,2025.98,3462.31,3097.87,3502.55,600.15,583.76,3.38,0000 0000 0000 0000 000000
2016-05-22 09:45:09,0.04,0.13,0.00,26.71,29.95,32.66,14.12,48.76,1007.88,2025.96,3461.39,3097.08,3501.79,599.86,583.56,3.43,0000 0000 0000 0000 000000
2016-05-22 09:50:10,0.04,0.13,0.00,26.69,29.95,32.68,14.19,48.96,1007.86,2025.93,3460.35,3096.61,3500.98,599.85,583.44,3.48,0000 0000 0000 0000 000000
2016-05-22 09:55:12,0.03,0.13,0.00,26.67,29.97,32.71,14.21,48.75,1007.86,2025.94,3459.32,3096.00,3500.09,599.94,583.61,3.53,0000 0000 0000 0000 000000
2016-05-22 10:00:13,0.03,0.14,0.00,26.66,29.97,32.75,14.18,48.82,1007.86,2025.79,3458.29,3095.33,3499.20,600.14,583.78,3.58,0000 0000 0000 0000 000000
2016-05-22 10:05:15,0.03,0.14,0.00,26.65,29.97,32.76,14.19,48.81,1007.84,2025.63,3457.27,3094.96,3498.38,600.31,583.92,3.63,0000 0000 0000 0000 000000
2016-05-22 10:10:16,0.01,0.14,0.00,26.62,29.97,32.77,14.21,48.88,1007.86,2025.43,3456.35,3094.17,3497.66,600.09,583.91,3.68,0000 0000 0000 0000 000000
2016-05-22 10:15:17,0.03,0.14,0.00,26.60,29.98,32.81,14.22,48.88,1007.84,2025.25,3455.37,3093.69,3496.86,599.62,583.47,3.73,0000 0000 0000 0000 000000
2016-05-22 10:20:18,0.04,0.14,0.00,26.57,29.98,32.83,14.13,48.93,1007.85,2025.26,3454.58,3093.03,3496.06,599.63,583.52,3.78,0000 0000 0000 0000 000000
2016-05-22 10:25:20,0.03,0.14,0.00,26.56,29.98,32.84,14.14,48.77,1007.83,2025.14,3453.59,3092.60,3495.30,599.92,583.79,3.83,0000 0000 0000 0000 000000
2016-05-22 10:30:21,0.03,0.15,0.00,26.52,29.97,32.84,14.28,48.78,1007.83,2025.15,3452.73,3092.02,3494.60,600.24,584.16,3.88,0000 0000 0000 0000 000000
2016-05-22 10:35:22,0.04,0.15,0.00,26.50,29.97,32.89,14.24,48.80,1007.84,2025.07,3451.73,3091.37,3493.81,600.02,584.00,3.93,0000 0000 0000 0000 000000
2016-05-22 10:40:24,0.03,0.15,0.00,26.47,29.97,32.89,14.18,48.72,1007.83,2025.16,3450.79,3091.00,3493.04,599.88,583.89,3.98,0000 0000 0000 0000 000000
2016-05-22 10:45:25,0.04,0.15,0.00,26.46,29.97,32.89,14.21,48.67,1007.83,2025.17,3449.93,3090.47,3492.26,599.91,583.97,4.03,0000 0000 0000 0000 000000
2016-05-22 10:50:26,0.02,0.15,0.00,26.44,29.95,32.88,14.29,49.10,1007.83,2025.10,3448.97,3089.97,3491.59,600.08,584.22,4.08,0000 0000 0000 0000 000000
2016-05-22 10:55:27,0.04,0.16,0.00,26.41,29.95,32.94,14.20,48.87,1007.83,2025.08,3448.07,3089.22,3490.92,599.98,584.12,4.13,0000 0000 0000 0000 000000
2016-05-22 11:00:29,0.04,0.16,0.00,26.37,29.94,33.03,14.28,48.97,1007.83,2025.18,3447.32,3088.99,3490.11,600.33,584.52,4.18,0000 0000 0000 0000 000000
2016-05-22 11:05:30,0.07,0.16,0.00,26.36,29.92,33.03,14.25,48.88,1007.83,2025.35,3446.60,3088.48,3489.67,600.08,584.41,4.23,0000 0000 0000 0000 000000
2016-05-22 11:10:31,0.02,0.16,0.00,26.31,29.92,33.03,14.31,48.92,1007.83,2025.31,3445.55,3087.99,3488.83,599.74,584.09,4.28,0000 0000 0000 0000 000000
2016-05-22 11:15:33,0.06,0.16,0.00,26.29,29.90,33.06,14.23,48.83,1007.83,2025.48,3444.78,3087.36,3488.05,599.81,584.26,4.33,0000 0000 0000 0000 000000
2016-05-22 11:20:34,0.03,0.17,0.00,26.26,29.90,33.10,14.23,48.82,1007.83,2025.65,3443.96,3087.01,3487.53,599.83,584.22,4.39,0000 0000 0000 0000 000000
2016-05-22 11:25:35,0.04,0.17,0.00,26.24,29.88,33.11,14.23,48.88,1007.82,2025.63,3443.07,3086.39,3486.85,599.99,584.53,4.44,0000 0000 0000 0000 000000
2016-05-22 11:30:36,0.04,0.17,0.00,26.20,29.87,33.09,14.25,49.03,1007.82,2025.83,3442.17,3086.00,3486.06,599.92,584.61,4.49,0000 0000 0000 0000 000000
2016-05-22 11:35:38,0.05,0.17,0.00,26.17,29.85,33.09,14.31,48.98,1007.82,2025.92,3441.30,3085.53,3485.35,600.15,584.76,4.54,0000 0000 0000 0000 000000
2016-05-22 11:40:39,0.03,0.18,0.00,26.15,29.85,33.06,14.24,49.02,1007.82,2025.96,3440.51,3085.02,3484.90,600.09,584.69,4.59,0000 0000 0000 0000 000000
2016-05-22 11:45:41,0.02,0.18,0.00,26.11,29.82,33.04,14.19,48.85,1007.77,2025.99,3439.82,3084.85,3484.10,599.85,584.55,4.64,0000 0000 0000 0000 000000
2016-05-22 11:50:42,0.04,0.18,0.00,26.08,29.81,33.04,14.26,48.88,1007.71,2025.99,3438.96,3084.12,3483.70,600.09,584.92,4.69,0000 0000 0000 0000 000000
2016-05-22 11:55:44,0.02,0.18,0.00,26.04,29.80,33.02,14.24,48.83,1007.68,2025.99,3438.10,3083.93,3483.00,600.02,584.77,4.74,0000 0000 0000 0000 000000
2016-05-22 12:00:45,0.05,0.18,0.00,26.01,29.77,32.99,14.23,48.68,1007.62,2025.99,3437.30,3083.13,3482.23,600.13,584.86,4.79,0000 0000 0000 0000 000000
2016-05-22 12:05:46,0.02,0.18,0.00,25.98,29.77,32.97,14.25,48.87,1007.69,2025.99,3436.47,3082.96,3481.77,600.03,585.01,4.84,0000 0000 0000 0000 000000
2016-05-22 12:10:47,0.04,0.19,0.00,25.95,29.75,32.96,14.25,48.92,1007.65,2025.99,3435.77,3082.30,3481.03,599.98,584.80,4.89,0000 0000 0000 0000 000000
2016-05-22 12:15:48,0.02,0.19,0.00,25.91,29.74,32.94,14.27,48.83,1007.51,2026.00,3434.90,3081.99,3480.37,600.05,584.96,4.94,0000 0000 0000 0000 000000
2016-05-22 12:20:49,0.04,0.19,0.00,25.87,29.72,32.89,14.35,49.02,1007.40,2026.00,3433.98,3081.31,3479.79,600.07,584.98,4.99,0000 0000 0000 0000 000000
2016-05-22 12:25:51,0.02,0.19,0.00,25.84,29.71,32.88,14.29,48.74,1007.41,2026.03,3433.11,3081.00,3479.05,600.06,585.13,5.04,0000 0000 0000 0000 000000
2016-05-22 12:30:52,0.04,0.19,0.00,25.81,29.70,32.85,14.31,49.01,1007.41,2026.06,3432.32,3080.61,3478.48,600.38,585.52,5.09,0000 0000 0000 0000 000000
2016-05-22 12:35:53,0.02,0.19,0.00,25.78,29.67,32.84,14.24,49.22,1007.36,2026.07,3431.57,3080.02,3477.90,599.58,584.70,5.14,0000 0000 0000 0000 000000
2016-05-22 12:40:55,0.05,0.20,0.00,25.75,29.65,32.82,14.23,49.25,1007.35,2026.28,3430.78,3079.72,3477.13,599.83,584.95,5.19,0000 0000 0000 0000 000000
2016-05-22 12:45:56,0.05,0.20,0.00,25.71,29.63,32.79,14.20,49.01,1007.34,2026.43,3429.96,3079.03,3476.61,599.67,584.90,5.24,0000 0000 0000 0000 000000
2016-05-22 12:50:57,0.04,0.20,0.00,25.68,29.61,32.75,14.36,49.07,1007.34,2026.72,3429.14,3078.93,3476.02,600.72,585.99,5.29,0000 0000 0000 0000 000000
2016-05-22 12:55:59,0.07,0.20,0.00,25.65,29.59,32.74,14.30,49.01,1007.34,2026.93,3428.45,3078.29,3475.53,599.94,585.34,5.34,0000 0000 0000 0000 000000
2016-05-22 13:01:00,0.02,0.21,0.00,25.61,29.56,32.71,14.30,49.05,1007.34,2026.96,3427.68,3078.00,3474.97,600.01,585.39,5.39,0000 0000 0000 0000 000000